Location: Newark
(42.7133°N, 87.7910°W)
Time: 21:03:32
(UTC+00:00)

Vanguard 1 - Pass Details

Date: 28 September 2019
Orbit: 653 x 3830 km, 34.2° (Epoch: 17 October)

Event Time Altitude Azimuth Distance (km) Brightness Sun altitude
Rises 06:59:26 0° 246° (WSW) 7,167 - -45.7°
Reaches altitude 10° 07:03:50 10° 244° (WSW) 6,422 - -45.3°
Exits shadow 07:24:39 64° 183° (S) 4,065 12.7 -43.2°
Maximum altitude 07:26:02 65° 169° (S) 4,038 12.7 -43.1°
Drops below altitude 10° 07:46:22 10° 94° (E) 5,968 14.4 -40.7°
Sets 07:50:16 0° 92° (E) 6,664 14.8 -40.2°
